Greenville, MS

1:53 AM CST on January 16, 2018 (GMT -0600)
Mid Delta Regional

Weather History for KGLH - February, 2013

Change the Weather History Date:

Wednesday, February 27, 2013

  Actual Average Record
Temperature  
Mean Temperature 45 °F 50 °F  
Max Temperature 58 °F 60 °F 83 °F (1962)
Min Temperature 31 °F 40 °F 20 °F (1934)
Degree Days  
Heating Degree Days 20 15  
Month to date heating degree days 466 506  
Since 1 July heating degree days 1982 2295  
Cooling Degree Days 0 0  
Month to date cooling degree days 0 0  
Year to date cooling degree days 10 1  
Moisture  
Dew Point 35 °F    
Average Humidity 68    
Maximum Humidity 89    
Minimum Humidity 47    
Precipitation  
Precipitation 0.00 in 0.14 in 2.47 in (2001)
Month to date precipitation 3.35 4.88  
Year to date precipitation 12.46 9.85  
Sea Level Pressure  
Sea Level Pressure 30.00 in    
Wind  
Wind Speed 8 mph (WNW)    
Max Wind Speed 20 mph    
Max Gust Speed 24 mph    
Visibility 10 miles    
Events      
T = Trace of Precipitation, MM = Missing Value Source: NWS Daily Summary

Daily Weather History Graph

Daily Weather History Graph

Search for Another Location

Airport or City:

Trip Planner

Search our weather history database for the weather conditions in past years. The results will help you decide how hot, cold, wet, or windy it might be!

Date:

Astronomy

Feb. 27, 2013 Rise Set
Actual Time 6:34 AM CST 5:59 PM CST
Civil Twilight 6:09 AM CST 6:24 PM CST
Nautical Twilight 5:40 AM CST 6:53 PM CST
Astronomical Twilight 5:11 AM CST 7:21 PM CST
Moon 8:10 PM CST (2/27) 7:18 AM CST (2/27)
Length of Visible Light 12h 14m
Length of Day
11h 24m
Waning Gibbous, 96% of the Moon is Illuminated
Feb 27
Waning Gibbous
Mar 4
Last Quarter
Mar 11
New
Mar 19
First Quarter
Mar 27
Full

Hourly Weather History & Observations

Time (CST) Temp. Windchill Dew Point Humidity Pressure Visibility Wind Dir Wind Speed Gust Speed Precip Events Conditions
12:53 AM 39.9 °F 37.8 °F 33.1 °F 77% 29.94 in 10.0 mi West 3.5 mph - N/A   Clear
1:53 AM 37.0 °F 33.3 °F 32.0 °F 82% 29.95 in 10.0 mi SW 4.6 mph - N/A   Clear
2:53 AM 36.0 °F 31.1 °F 30.9 °F 82% 29.95 in 10.0 mi WSW 5.8 mph - N/A   Clear
3:53 AM 36.0 °F 31.1 °F 30.9 °F 82% 29.94 in 10.0 mi West 5.8 mph - N/A   Clear
4:53 AM 35.1 °F 31.0 °F 32.0 °F 89% 29.95 in 10.0 mi West 4.6 mph - N/A   Clear
5:53 AM 33.1 °F 30.0 °F 30.9 °F 92% 29.96 in 10.0 mi West 3.5 mph - N/A   Clear
6:53 AM 33.1 °F - 30.9 °F 92% 29.96 in 9.0 mi Calm Calm - N/A   Clear
7:53 AM 37.9 °F 33.5 °F 34.0 °F 86% 30.00 in 10.0 mi West 5.8 mph - N/A   Clear
8:53 AM 42.8 °F 38.0 °F 35.6 °F 76% 30.00 in 10.0 mi WNW 8.1 mph - N/A   Clear
9:53 AM 46.0 °F 41.4 °F 36.0 °F 68% 30.03 in 10.0 mi NW 9.2 mph - N/A   Clear
10:53 AM 48.0 °F - 37.0 °F 66% 30.05 in 10.0 mi WNW 10.4 mph - N/A   Partly Cloudy
11:53 AM 48.9 °F - 37.0 °F 64% 30.04 in 10.0 mi West 8.1 mph - N/A   Clear
12:53 PM 52.0 °F - 37.0 °F 57% 30.00 in 10.0 mi West 9.2 mph - N/A   Partly Cloudy
1:53 PM 55.0 °F - 37.0 °F 51% 29.98 in 10.0 mi West 10.4 mph - N/A   Clear
2:53 PM 57.0 °F - 37.9 °F 49% 29.97 in 10.0 mi WNW 13.8 mph 17.3 mph N/A   Partly Cloudy
3:53 PM 57.0 °F - 37.9 °F 49% 29.98 in 10.0 mi NW 13.8 mph - N/A   Partly Cloudy
4:53 PM 55.0 °F - 36.0 °F 49% 29.99 in 10.0 mi WNW 15.0 mph - N/A   Mostly Cloudy
5:53 PM 53.1 °F - 35.1 °F 50% 30.00 in 10.0 mi NW 10.4 mph - N/A   Mostly Cloudy
6:53 PM 46.9 °F - 37.0 °F 68% 30.03 in 10.0 mi NNW 6.9 mph - N/A   Scattered Clouds
7:53 PM 46.0 °F 41.4 °F 37.0 °F 71% 30.04 in 10.0 mi NW 9.2 mph - N/A   Partly Cloudy
8:53 PM 45.0 °F 40.6 °F 36.0 °F 71% 30.06 in 10.0 mi NNW 8.1 mph - N/A   Clear
9:53 PM 42.1 °F 38.4 °F 34.0 °F 73% 30.07 in 10.0 mi NW 5.8 mph - N/A   Clear
10:53 PM 41.0 °F 39.0 °F 34.0 °F 76% 30.07 in 10.0 mi NW 3.5 mph - N/A   Clear
11:53 PM 39.0 °F 35.7 °F 33.1 °F 79% 30.06 in 10.0 mi West 4.6 mph - N/A   Clear